Location: *
(45.9500°N, 9.0833°E)
Time: 01:12:28
(UTC+00:00)

SR - Pass Details

Date: 22 June 2021
Orbit: 577 x 878 km, 66.7° (Epoch: 23 July)

Event Time Altitude Azimuth Distance (km) Brightness Sun altitude
Rises 18:18:01 0° 287° (WNW) 3,465 ? 8.2°
Reaches altitude 10° 18:22:34 10° 319° (NW) 2,495 ? 7.4°
Maximum altitude 18:24:30 12° 339° (NNW) 2,362 ? 7.1°
Drops below altitude 10° 18:26:25 10° 359° (N) 2,452 ? 6.8°
Sets 18:30:47 0° 31° (NNE) 3,318 ? 6.2°
